Location: Newark
(46.7333°N, 6.6667°E)
Time: 05:31:57
(UTC+00:00)

X-37B - Visible Passes

Search period start: 29 September 2020 00:00
Search period end: 09 October 2020 00:00
Orbit: 386 x 387 km, 45.0° (Epoch: 18 September)

Date Brightness Start Highest point End Pass type
(mag) Time Alt. Az. Time Alt. Az. Time Alt. Az.
02 Oct 3.1 19:10:14 10° SW 19:10:54 14° SSW 19:10:54 14° SSW visible
03 Oct 2.4 18:12:22 10° SSW 18:14:34 17° SSE 18:15:15 16° SE visible
04 Oct 1.6 18:49:18 10° SW 18:51:46 34° S 18:51:46 34° S visible
05 Oct 1.9 17:51:06 10° SW 17:53:49 26° SSE 17:55:54 14° ESE visible
05 Oct 3.0 19:27:01 10° WSW 19:28:11 20° WSW 19:28:11 20° WSW visible
06 Oct 0.9 18:28:32 10° WSW 18:31:38 50° SSE 18:32:15 42° SE visible
07 Oct 1.5 17:30:10 10° SW 17:33:08 37° SSE 17:36:07 10° E visible
07 Oct 1.9 19:06:25 10° W 19:08:32 37° WSW 19:08:32 37° WSW visible
08 Oct 0.8 18:07:54 10° WSW 18:11:01 61° S 18:12:31 27° ESE visible
08 Oct 3.9 19:44:25 10° W 19:44:47 13° W 19:44:47 13° W visible
